This demonstration page uses our WeatherBlox Daily Observations layout. Learn more.

Left ArrowRight Arrow

Hourly Observations for December 30, 2020

Temp ( °F °C ) Dew Point ( °F °C ) Humidity (%) Winds ( mph kmh ) Pressure ( in mb ) Visibility ( mi km ) Precip ( " mm )
6:30 am 06:30 Clear 36 2 28 -2 75 75 S 12 19 30.05 1018 10 16 N/A
6:45 am 06:45 Partly Cloudy 36 2 28 -2 75 75 S 9 15 30.06 1018 10 16 N/A
7:10 am 07:10 Cloudy 37 3 28 -2 70 70 S 9 15 30.05 1018 10 16 N/A
7:45 am 07:45 Mostly Cloudy 37 3 30 -1 75 75 S 10 17 30.04 1017 10 16 N/A
8:45 am 08:45 Cloudy 45 7 36 2 71 71 S 10 17 30.03 1017 10 16 N/A
9:45 am 09:45 Cloudy with Light Rain 39 4 36 2 87 87 N N/A 30.06 1018 5 8 N/A
10:30 am 10:30 Cloudy with Light Rain 37 3 37 3 100 100 N N/A 30.07 1018 3 4 N/A
10:45 am 10:45 Cloudy with Light Rain 39 4 39 4 100 100 N N/A 30.05 1018 3 4 N/A
11:45 am 11:45 Cloudy with Light Rain 45 7 43 6 93 93 S 8 13 30.03 1017 2 3 N/A
12:22 pm 12:22 Cloudy with Light Rain 46 8 46 8 100 100 SSW 15 24 30.00 1016 5 8 N/A
12:55 pm 12:55 Cloudy with Light Rain 48 9 46 8 94 94 SSW 17 28 29.98 1015 10 16 N/A
1:45 pm 13:45 Cloudy with Light Rain 48 9 46 8 94 94 SW 12 19 29.97 1015 5 8 N/A
2:45 pm 14:45 Cloudy with Light Rain 48 9 46 8 94 94 SSW 13 20 29.95 1014 4 6 N/A
3:45 pm 15:45 Cloudy with Light Rain 48 9 46 8 94 94 SSW 8 13 29.95 1014 5 8 N/A
4:45 pm 16:45 Cloudy with Light Rain 46 8 46 8 100 100 SW 6 9 29.96 1015 7 11 N/A
5:45 pm 17:45 Cloudy with Light Rain 39 4 37 3 93 93 NW 18 30 30.01 1016 7 11 N/A
6:45 pm 18:45 Cloudy 37 3 32 undefined 81 81 NW 16 26 30.06 1018 N/A N/A
7:45 pm 19:45 Cloudy with Light Rain 36 2 32 undefined 87 87 NW 13 20 30.09 1019 5 8 N/A
8:45 pm 20:45 Cloudy with Light Rain 32 undefined 30 -1 93 93 WNW 9 15 30.10 1019 7 11 N/A
9:45 pm 21:45 Cloudy with Light Rain 32 undefined 30 -1 93 93 WNW 5 7 30.12 1020 5 8 N/A

Powered by AerisWeather